[[{"header":{"parameterUnit":"m.s-1","parameterCategory":1,"la1":30.2991,"la2":30.254,"lo1":-89.0895,"lo2":-89.0444,"dy":0.0017,"dx":0.0017,"nx":28,"ny":28,"refTime":"2024-09-29T03:00:00:Z","depth":0,"parameterNumber":2,"parameterNumberName":"U-component_of_WINDS"},"data":[0,0,0,0,0,0,0,0,0,0,0,0,0,0,0,0,0,0,0,0,0,0,0,0,0,0,0,0,0,0,0,0,0,0,0,0,0,0,0,0,0,0,0,0,0,0,0,0,0,0,0,0,0,0,0,0,0,0,2.1671,2.1671,0,2.1711,2.1711,2.1712,2.1696,2.1695,2.1694,2.1693,2.1734,2.1736,2.1738,0,0,0,0,0,0,0,0,0,0,0,0,0,2.1582,2.1583,2.1671,2.1671,2.1672,2.1711,2.1711,2.1712,2.1696,2.1695,2.1693,2.1692,2.1733,2.1736,2.1738,0,0,0,0,0,0,0,0,0,0,0,0,0,2.1621,2.1584,2.1671,2.1668,2.1669,2.1711,2.1711,2.1712,2.1696,2.1695,2.1693,2.1692,2.1733,2.1736,2.1738,2.1785,0,0,2.1748,2.1749,0,0,0,0,0,0,0,0,2.1619,2.1624,2.1668,2.1669,2.1669,2.1697,2.1695,2.1737,2.1696,2.1686,2.1693,2.1691,2.1723,2.1727,2.1737,2.1787,2.1789,2.1748,2.175,2.1751,2.1752,0,0,0,0,0,0,0,2.1616,2.1622,2.1687,2.1669,2.1669,2.1666,2.167,2.1703,2.1712,2.1686,2.1685,2.169,2.1723,2.1734,2.1738,2.179,2.1748,2.175,2.1752,2.1753,2.1882,2.1883,0,0,0,0,0,0,2.1613,2.162,2.1685,2.1688,2.164,2.1669,2.1673,2.1689,2.1711,2.1713,2.1691,2.1689,2.173,2.1735,2.1739,2.1796,2.1751,2.1754,2.1755,2.188,2.1882,2.1884,0,0,0,0,0,0,2.1611,2.1619,2.1684,2.1654,2.1662,2.1672,2.169,2.1691,2.1702,2.1715,2.1717,2.1702,2.1729,2.1735,2.1774,2.1797,2.1755,2.1758,2.1878,2.1881,2.1883,2.1909,0,0,0,0,0,0,2.1609,2.1619,2.1636,2.1654,2.1664,2.1717,2.1691,2.1693,2.1708,2.1705,2.1725,2.1727,2.1728,2.177,2.1777,2.18,2.176,2.1876,2.1879,2.1882,2.1906,2.1912,2.1917,0,0,0,0,0,2.1606,2.1641,2.1637,2.1645,2.1685,2.1719,2.1724,2.1725,2.1709,2.1727,2.1736,2.1726,2.1794,2.1774,2.1782,2.1807,2.1875,2.1878,2.1882,2.1904,2.1911,2.1917,0,0,0,0,0,0,2.1625,2.1644,2.1639,2.1682,2.1699,2.1716,2.1738,2.1732,2.1754,2.1751,2.1752,2.1756,2.1797,2.1806,2.1783,2.1854,2.1832,2.1838,2.1846,2.1853,2.1858,2.1854,2.1763,0,0,0,0,0,2.1634,2.1659,2.1675,2.1711,2.172,2.1728,2.1742,2.1742,2.176,2.1767,2.1778,2.1796,2.1822,2.1838,2.1862,2.1909,2.1913,2.193,2.1935,2.1939,2.1944,2.197,2.1977,2.1896,2.1896,2.1896,0,0,2.1653,2.1667,2.1683,2.1715,2.1729,2.1755,2.1734,2.1763,2.1783,2.1771,2.1808,2.1818,2.1838,2.1881,2.1901,2.189,2.1968,2.1944,2.1948,2.1949,2.1974,2.1982,2.1989,2.1898,2.1898,2.1897,0,0,2.1701,2.1714,2.1746,2.176,2.1781,2.1786,2.1794,2.1813,2.1819,2.1856,2.1849,2.1873,2.1917,2.1932,2.1945,2.2002,2.1994,2.201,2.2038,2.2063,2.207,2.2075,2.2095,2.2102,2.2014,2.2014,2.2014,0,2.1722,2.1762,2.1763,2.1793,2.1808,2.18,2.1833,2.1846,2.1874,2.1885,2.1873,2.1928,2.1941,2.1988,2.2002,2.2013,2.2023,2.2006,2.2068,2.2074,2.208,2.2099,2.2106,2.2016,2.2016,2.2016,2.2016,0,2.1786,2.1814,2.1838,2.1865,2.1883,2.1914,2.1921,2.1939,2.1938,2.1945,2.1984,2.2,2.2027,2.2039,2.2038,2.2086,2.2079,2.2068,2.2046,2.2089,2.2107,2.2114,2.2019,2.2018,2.2017,2.2017,0,0,2.1845,2.1874,2.1883,2.1895,2.1919,2.194,2.1972,2.1999,2.2015,2.2035,2.2062,2.21,2.209,2.2106,2.2107,2.2129,2.2173,2.2116,2.2116,2.2125,2.2228,2.2235,2.2243,2.2169,2.2171,2.2172,2.2226,0,2.1894,2.1949,2.1952,2.2002,2.2028,2.2022,2.205,2.2068,2.2076,2.21,2.2109,2.2136,2.2121,2.2131,2.2153,2.2163,2.2194,2.216,2.2194,2.2195,2.2187,2.2253,2.226,2.231,2.2233,2.2234,2.2235,0,2.1958,2.1981,2.2033,2.2054,2.2065,2.209,2.2116,2.2139,2.2159,2.2164,2.2182,2.2181,2.2214,2.2192,2.2239,2.2215,2.223,2.2238,2.224,2.2242,2.2216,2.2255,2.2326,2.2333,2.2246,2.2245,2.2245,0,2.1995,2.2039,2.2076,2.2087,2.2112,2.213,2.2142,2.2161,2.2178,2.2201,2.2212,2.2239,2.2253,2.2275,2.2281,2.2265,2.2327,2.2306,2.2332,2.2332,2.2344,2.2342,2.2416,2.2356,2.2356,2.2355,2.2355,0,2.2049,2.2081,2.2093,2.2115,2.2151,2.2156,2.2192,2.2203,2.2221,2.2246,2.2244,2.2267,2.2275,2.23,2.2306,2.2343,2.235,2.2355,2.2356,2.2354,2.2354,2.2363,2.2359,2.2358,2.2357,2.2357,2.2356,0,2.2095,2.2104,2.2144,2.2166,2.2172,2.2198,2.2216,2.2239,2.2248,2.228,2.2288,2.2301,2.2331,2.234,2.2377,2.238,2.2424,2.2423,2.2417,2.2417,2.2442,2.2439,2.2523,2.2534,2.2467,2.2468,2.2468,0,2.2127,2.2152,2.2177,2.2194,2.2206,2.2233,2.225,2.2257,2.2275,2.2302,2.2321,2.2351,2.2375,2.2424,2.2437,2.2465,2.2464,2.2491,2.2468,2.2466,2.2463,2.2461,2.2464,2.2495,2.2496,2.2496,2.2497,0,2.2185,2.2189,2.2213,2.224,2.2261,2.2283,2.2304,2.2318,2.2327,2.2348,2.2379,2.2398,2.2436,2.2465,2.2494,2.2507,2.2504,2.2505,2.2512,2.251,2.2505,2.2507,2.2428,2.2502,2.2502,2.2501,2.2501,2.2501,2.2225,2.2246,2.2268,2.2296,2.2312,2.2332,2.2354,2.2367,2.2392,2.2423,2.2426,2.246,2.2482,2.252,2.2535,2.2562,2.2554,2.2565,2.2567,2.2569,2.2571,2.2503,2.2567,2.2567,2.2567,2.2567,2.2567,0,2.2281,2.2295,2.2321,2.235,2.2373,2.2369,2.2392,2.2411,2.244,2.2461,2.2486,2.2522,2.2551,2.2568,2.2598,2.2616,2.2616,2.2624,2.2622,2.2625,2.2577,2.2567,2.2624,2.2624,2.2624,2.2624,2.2624,2.2624,2.2313,2.2349,2.2356,2.2402,2.2416,2.2448,2.2462,2.2481,2.2498,2.2538,2.2563,2.2574,2.2594,2.2625,2.2652,2.2657,2.2668,2.2676,2.268,2.2634,2.2628,2.2623,2.2613,2.2679,2.2679,2.2726,2.2726,2.2726]},{"header":{"parameterUnit":"m.s-1","parameterCategory":1,"la1":30.2991,"la2":30.254,"lo1":-89.0895,"lo2":-89.0444,"dy":0.0017,"dx":0.0017,"nx":28,"ny":28,"refTime":"2024-09-29T03:00:00:Z","depth":0,"parameterNumber":3,"parameterNumberName":"V-component_of_WINDS"},"data":[0,0,0,0,0,0,0,0,0,0,0,0,0,0,0,0,0,0,0,0,0,0,0,0,0,0,0,0,0,0,0,0,0,0,0,0,0,0,0,0,0,0,0,0,0,0,0,0,0,0,0,0,0,0,0,0,0,0,1.3824,1.3826,0,1.4005,1.4007,1.4009,1.4072,1.4072,1.4071,1.407,1.4257,1.4263,1.4268,0,0,0,0,0,0,0,0,0,0,0,0,0,1.3532,1.3537,1.3824,1.3826,1.3829,1.4005,1.4007,1.401,1.4072,1.4072,1.4071,1.407,1.4255,1.4262,1.4269,0,0,0,0,0,0,0,0,0,0,0,0,0,1.3681,1.3539,1.3824,1.3881,1.3888,1.4004,1.4007,1.4011,1.4073,1.4072,1.4071,1.407,1.4253,1.4261,1.427,1.4342,0,0,1.4295,1.4299,0,0,0,0,0,0,0,0,1.3672,1.3691,1.387,1.3877,1.3885,1.4015,1.3973,1.4122,1.4073,1.4003,1.407,1.4069,1.4178,1.4192,1.4228,1.4351,1.4359,1.4296,1.4301,1.4305,1.4307,0,0,0,0,0,0,0,1.3662,1.3684,1.3896,1.3873,1.3882,1.3898,1.3918,1.4001,1.4094,1.4009,1.4014,1.4034,1.4181,1.422,1.4233,1.4362,1.4296,1.4303,1.4309,1.4312,1.4551,1.4552,0,0,0,0,0,0,1.3642,1.3675,1.389,1.3901,1.3774,1.3904,1.3926,1.3975,1.4093,1.411,1.4035,1.4036,1.4206,1.4223,1.424,1.4332,1.4305,1.4313,1.4317,1.455,1.4551,1.4553,0,0,0,0,0,0,1.3635,1.366,1.3883,1.3789,1.3819,1.391,1.3964,1.3979,1.4017,1.4113,1.413,1.4057,1.4206,1.4228,1.4316,1.4339,1.4316,1.4324,1.4548,1.455,1.4552,1.4516,0,0,0,0,0,0,1.3627,1.3658,1.3687,1.379,1.3824,1.3956,1.3965,1.3983,1.4032,1.4035,1.4138,1.4155,1.4207,1.4303,1.4324,1.435,1.4331,1.4546,1.4549,1.4551,1.4515,1.4516,1.4517,0,0,0,0,0,1.3616,1.367,1.3688,1.3713,1.3862,1.3957,1.3976,1.4035,1.4033,1.4063,1.4123,1.4151,1.4333,1.4311,1.4336,1.4365,1.4545,1.4548,1.4551,1.4515,1.4516,1.4517,0,0,0,0,0,0,1.3569,1.3685,1.3706,1.3795,1.3865,1.3967,1.4007,1.4035,1.4108,1.4108,1.4179,1.4201,1.4283,1.4333,1.4307,1.444,1.4441,1.4448,1.4405,1.4407,1.4407,1.4394,1.4338,0,0,0,0,0,1.3568,1.3636,1.3734,1.3803,1.3837,1.3915,1.3959,1.3998,1.4074,1.4104,1.4172,1.4245,1.4318,1.4365,1.4438,1.4523,1.4545,1.4554,1.4555,1.4555,1.4561,1.4608,1.4612,1.4562,1.4562,1.4562,0,0,1.3569,1.3641,1.3679,1.3795,1.3854,1.3922,1.394,1.4012,1.4063,1.4116,1.4202,1.4253,1.434,1.4425,1.4466,1.4469,1.458,1.4559,1.4558,1.4565,1.4611,1.4616,1.462,1.4564,1.4564,1.4564,0,0,1.3604,1.3666,1.3729,1.3788,1.3876,1.3928,1.3943,1.404,1.4076,1.4163,1.4204,1.4265,1.4391,1.4449,1.4496,1.455,1.4578,1.4572,1.4576,1.4621,1.4625,1.4628,1.4646,1.4652,1.4578,1.4578,1.4578,0,1.3594,1.3698,1.3758,1.3827,1.3876,1.3926,1.399,1.4044,1.4152,1.4184,1.4186,1.4342,1.4404,1.4503,1.4515,1.4552,1.457,1.4561,1.4619,1.4624,1.4628,1.4646,1.4653,1.4576,1.4576,1.4576,1.4577,0,1.368,1.3751,1.3791,1.3893,1.3947,1.4013,1.4082,1.4129,1.4163,1.4213,1.4301,1.4376,1.4464,1.449,1.4524,1.4593,1.4592,1.4605,1.4607,1.463,1.4648,1.4656,1.4574,1.4575,1.4575,1.4575,0,0,1.3692,1.3824,1.3838,1.3884,1.3984,1.404,1.4108,1.4193,1.4231,1.4303,1.4361,1.4464,1.4476,1.4528,1.457,1.4608,1.4644,1.4617,1.462,1.4618,1.4723,1.4712,1.4719,1.4663,1.4665,1.4666,1.4715,0,1.374,1.3862,1.3917,1.4015,1.408,1.4127,1.4185,1.4252,1.4301,1.4363,1.4418,1.4489,1.45,1.4532,1.4572,1.4631,1.4666,1.4629,1.4717,1.4719,1.4693,1.4729,1.4718,1.4761,1.4723,1.4724,1.4725,0,1.3813,1.3883,1.3986,1.4076,1.4106,1.4158,1.4238,1.4298,1.4374,1.4407,1.4464,1.4503,1.4574,1.457,1.4669,1.4642,1.4681,1.4715,1.4719,1.4729,1.4723,1.4739,1.4777,1.4783,1.4737,1.4736,1.4735,0,1.3809,1.393,1.4007,1.4045,1.4153,1.4187,1.4234,1.431,1.4356,1.4427,1.4458,1.4536,1.4579,1.4638,1.4697,1.4689,1.4789,1.4791,1.4818,1.4816,1.4837,1.4835,1.488,1.4863,1.4863,1.4863,1.4862,0,1.3856,1.3917,1.4007,1.4054,1.4123,1.4185,1.4252,1.4302,1.4368,1.4426,1.4471,1.4524,1.4598,1.466,1.4706,1.478,1.4799,1.4827,1.4838,1.4823,1.4819,1.4849,1.4848,1.4864,1.4864,1.4864,1.4863,0,1.3865,1.3927,1.4014,1.4107,1.4132,1.4179,1.4259,1.4307,1.4356,1.4428,1.4448,1.4527,1.4602,1.4666,1.4765,1.4796,1.4872,1.4886,1.4845,1.4851,1.4874,1.487,1.494,1.4952,1.4926,1.4927,1.4927,0,1.389,1.3938,1.4036,1.4077,1.4122,1.4189,1.4236,1.4298,1.4346,1.4435,1.4471,1.4549,1.4614,1.4732,1.4797,1.4873,1.4889,1.4908,1.4901,1.4882,1.4888,1.4884,1.4888,1.4908,1.4908,1.4908,1.4908,0,1.3929,1.3956,1.4023,1.4099,1.4154,1.4217,1.4282,1.4313,1.4387,1.4438,1.4514,1.4565,1.4665,1.4741,1.4823,1.4871,1.4901,1.491,1.492,1.4904,1.4878,1.4891,1.4845,1.4908,1.4908,1.4908,1.4908,1.4908,1.3946,1.399,1.4065,1.4136,1.4191,1.425,1.4298,1.4353,1.4418,1.4503,1.4536,1.4614,1.4687,1.48,1.4848,1.4909,1.4914,1.4929,1.4932,1.4935,1.4932,1.4868,1.4925,1.4925,1.4925,1.4925,1.4925,0,1.3986,1.4036,1.4101,1.4189,1.4245,1.4268,1.434,1.4385,1.4452,1.4518,1.4581,1.4668,1.4741,1.4812,1.4889,1.4924,1.494,1.4942,1.494,1.495,1.4924,1.4907,1.4928,1.4928,1.4928,1.4928,1.4928,1.4928,1.4013,1.4087,1.4124,1.4225,1.4275,1.4351,1.439,1.4444,1.4496,1.4591,1.4652,1.4697,1.4764,1.4846,1.4914,1.4933,1.4959,1.4957,1.4979,1.4953,1.4952,1.4951,1.4936,1.4962,1.4962,1.5,1.5001,1.5001]}]]